Tracking 30990 objects as of 8-Jul-2025
HD Live streaming from Space Station
objects crossing your sky now

STARLINK-1423

Track STARLINK-1423 now!
10-day predictions
STARLINK-1423 is classified as:


NORAD ID: 45710
Int'l Code: 2020-035BF
Perigee: 553.4 km
Apogee: 555.4 km
Inclination: 53.1 °
Period: 95.6 minutes
Semi major axis: 6925 km
RCS: Unknown
Launch date: June 4, 2020
Source: United States (US)
Launch site: AIR FORCE EASTERN TEST RANGE (AFETR)
Your satellite tracking list
Your tracking list is empty




NASA's NSSDC Master Catalog

Two Line Element Set (TLE):
1 45710U 20035BF  25188.94661888 -.00000229  00000-0  35450-5 0  9997
2 45710  53.0561  55.3113 0001492  93.2010 266.9150 15.06380360282269
Source of the keplerian elements: AFSPC